Find Starlink 32335

NORAD ID: 61703 Int'l Des: 2024-195 Owner: SPXS Country: US Constellation: starlink operational
LEOCIRCULAR

实时位置

正在加载3D地球...

关于 Starlink 32335

正在加载描述...

即将过境

Passes for default location (London). Set your location on the main map for personalized predictions.

高度历史

Loading altitude history...

两行轨道根数

1 61703U 24195S 26120.16667823 .00320200 48647-4 10699-2 0 9995
2 61703 53.1366 255.7417 0012045 290.3985 162.0183 15.89597269 4996
Epoch: Apr 30, 2026 • Age: 8 hours

当前状态

高度 314.0 km
速度 7.72 km/s
星下点 -52.30°S, 106.5°E
发射日期 Oct 30, 2024
运行时间 1.4 years
类型 internet

技术详情

分类 Payload
质量 730.00 kg
干质量 700.00 kg
总质量 730.00 kg
长度 0.30 m
直径 4.10 m
跨度 29.00 m
形状 Box + pan
制造商 SPXS
平台类型 Starlink V2M
阶段状态 In Orbit
所有者/国家 SPXS/US

Most Searched